OPS 4682 DEB, 51764

Orbit data source: Space-Track

OPS 4682 DEB, 51764 is space debris in LEO originally from a launch on Sat, 03 Apr 1965 UTC launched from the Air Force Western Test Range (AFWTR). Debris objects in space refer to the collection of defunct objects orbiting the Earth. Examples of debris include non-operational satellites, rocket bodies, and fragments generated from explosions, collisions, or faulty payload assembly.

Loading next visibility...
Identifier
51764, 1965-027GV
Orbit
LEO
Country
Flag of USUS
Related business
Manufacturer
Unknown
Mission
Spacecraft
Bus & Motor
Unknown
Mass
Unknown
Launch date (UTC)
1965-04-03 (61 years ago)
Launch vehicle
Unknown
Launch site
Air Force Western Test Range (AFWTR)
Object type
Payload
Rocket body
Debris
Shape & HBR
Unknown shape, 1.1 m
Radar Cross Section
Medium (>0.1 m² and <1 m²)

Expand to show TLE details & history
Last TLE update: 2 days ago

TLE from 2 days ago
0 OPS 4682 DEB
1 51764U 65027GV  26262.57837932  .00000036  00000-0  10302-3 0  9993
2 51764  90.2596  10.8699 0037294  25.7868 348.9297 12.93677667605568
Epoch: 2026-09-19T13:52Z
TLE epoch observation values (Epoch: 2026-09-19T13:52:51.973Z)
Latitude
14.60624°
Longitude
164.10113°
Altitude
1,261.071 km
Speed
7.239 km/s
True Right ascension
00h 43m 12s
True Declination
14° 31' 41"
Sunlit
Object was in full shadow at epoch
Visualization orbit readout
Latitude
Unknown
Longitude
Unknown
Altitude
Unknown
Speed
Unknown
Apparent Right ascension
Unknown
Apparent Declination
Unknown
Sunlit
N/A
Visualization observer readout
Local Sidereal Time
00:09:05
Azimuth
Unknown
Elevation
Unknown
Doppler factor
Unknown
Orbital elements
Apogee altitude
1,312.671 km
Perigee altitude
1,255.52 km
Semi-major axis
7,662.232 km
Eccentricity
0.00373
Inclination
90.2596°
RAAN
10.8699°
Arg. of periapsis
25.7868°
True anomaly
348.84726°
Mean anomaly
348.9297°
Eccentric anomaly
348.88852°
Mean motion
3.23601 °/min
Orbital period
111.25 mins
BSTAR
0.00010302
Loading maneuver chart data...
Computing Atmospheric mass density...
Loading historical data...
Loading historical data...
Loading historical data...
Loading historical data...
Loading historical data...
Loading historical data...
Loading historical data...

Documentation

Showing up to 5 results
|